NETSAT-1

Last updated on Sat Aug 15 2026 00:03:44 GMT+0000 (Coordinated Universal Time)

1 46506U 20068W 26226.53379779 .00007356 00000+0 21334-3 0 9991 2 46506 97.8769 231.3129 0005728 142.9675 217.1964 15.35853650324253
UTC large
Height (km)
Speed (km/s)
/
Latitude / Longitude
Inclination (degrees)
Orbital Period (minutes)
Azimuth
Elevation
Range (km)
Doppler Factor

Next 0 passes for location: London (51.5072 / 0.1276)

No passes found over London.
NETSAT-1